Tracking 18980 objects as of 21-Feb-2018
HD Live streaming from Space Station
objects crossing your sky now

FENGYUN 1C DEB

Track FENGYUN 1C DEB now!
10-day predictions


NORAD ID: 30481
Int'l Code: 1999-025AGT
Perigee: 618.2 km
Apogee: 974.8 km
Inclination: 98.6 °
Period: 100.6 minutes
Semi major axis: 7167 km
RCS: 0.023 m2 (small)
Launch date: May 10, 1999
Source: People's Republic of China (PRC)
Launch site: Taiyaun Space Center, China (TSC)

Note: This is SATELLITE DEBRIS
aabbcc
Your satellite tracking list
Your tracking list is empty




NASA's NSSDC Master Catalog

Two Line Element Set (TLE):
1 30481U 99025AGT 18051.65655941  .00000252  00000-0  82407-4 0  9991
2 30481  98.6461  89.3098 0248765  76.2399  45.9288 14.30707895576892
Source of the keplerian elements: AFSPC